Location: Dillon
(41.1766°N, 107.0923°W)
Time: 16:05:53
(UTC+00:00)

SO-50 - Pass Details

Date: 04 July 2022
Orbit: 585 x 698 km, 64.6° (Epoch: 08 August)

Event Time Altitude Azimuth Distance (km) Brightness Sun altitude
Exits shadow 06:24:40 59° 76° (ENE) 768 ? -25.0°
Drops below altitude 10° 06:28:49 10° 38° (NE) 2,117 ? -25.1°
Sets 06:31:12 0° 36° (NE) 3,050 ? -25.2°
